Wind_Speed
10 10 10 10 11 11 11 11 12 12 13 14 15 16 16 17 17 18 19 19 19 19 19 19 20 20 20 20 20 20 21 21 21 22 22 22 23 23 23 23 22 22 22
10 10 11 11 11 12 12 13 14 15 15 16 17 17 18 18 19 19 19 19 19 19 19 20 20 20 20 21 21 21 21 21 21 21 22 22 22 23 23 23 23 23 23
11 11 11 12 13 13 14 15 15 16 16 17 17 18 18 18 18 18 19 19 19 19 19 19 19 20 20 20 20 20 20 20 20 20 21 21 21 22 22 23 23 23 23
11 12 12 13 14 15 15 15 16 16 17 17 17 18 18 18 19 19 19 19 18 18 19 19 19 19 18 18 18 18 19 19 19 20 20 20 21 21 22 22 22 23 23
13 13 13 14 14 15 15 15 16 17 17 18 18 19 19 19 19 19 19 19 18 18 18 18 18 19 19 19 19 19 19 19 20 20 21 21 22 22 22 22 22 22 22
12 13 14 14 15 15 16 17 18 18 19 19 19 20 20 19 19 18 18 18 18 18 19 19 20 20 20 20 20 21 21 21 21 22 22 22 23 23 23 23 23 23 23
13 14 14 15 16 17 17 18 19 19 20 20 20 20 20 19 19 19 19 20 20 20 21 21 21 22 22 22 22 23 23 23 23 24 24 24 24 25 25 25 25 25 25
14 15 16 17 18 18 19 19 20 20 20 20 20 20 20 21 21 21 21 21 21 22 22 22 23 23 23 24 24 24 25 25 26 26 26 27 27 27 28 28 28 28 28
15 16 16 16 17 18 18 19 19 20 20 20 20 21 21 21 22 22 22 22 23 23 23 23 23 24 24 25 25 26 26 27 27 28 28 29 29 29 30 30 30 30 30
14 15 15 16 17 18 19 19 20 20 20 21 21 22 22 23 23 23 23 23 23 23 23 23 24 24 25 26 26 27 27 28 28 29 30 30 31 31 32 32 33 33 33
15 16 17 18 19 19 20 20 21 21 22 22 23 23 23 23 23 23 23 23 23 23 23 24 24 25 26 27 27 28 28 29 29 30 30 31 32 32 33 33 34 35 35
16 17 18 19 20 21 21 22 22 23 23 24 24 24 24 24 24 24 24 24 24 24 24 25 25 26 27 27 28 29 29 30 31 31 32 32 33 33 34 34 35 36 37
17 18 19 20 21 22 22 23 24 24 25 25 25 25 25 25 25 24 24 25 25 25 26 26 27 27 28 28 29 30 31 31 32 32 33 33 34 35 35 36 37 37 38
19 19 20 21 22 22 23 24 24 25 26 26 26 26 26 26 26 26 25 26 26 26 27 27 28 29 29 30 31 31 32 33 33 34 34 34 35 36 37 37 38 39 40
20 21 22 23 23 24 24 25 25 26 27 27 27 27 27 27 27 27 27 27 27 28 28 29 30 30 31 31 32 33 34 34 35 35 35 35 36 37 38 39 40 41 41
22 23 23 24 25 25 25 26 26 27 28 28 28 28 28 28 28 28 28 29 29 29 30 31 31 32 32 33 34 34 35 36 36 37 37 37 38 38 39 39 40 41 42
24 24 25 25 25 26 27 27 28 29 29 29 29 29 29 29 29 29 30 30 31 31 32 32 33 33 34 34 35 36 36 37 38 38 38 39 39 40 40 40 41 41 42
26 26 26 27 27 27 28 29 29 30 30 30 30 30 30 30 30 31 31 32 32 33 33 34 35 35 36 36 37 38 38 38 39 39 40 40 41 41 41 42 42 42 43
28 28 28 28 29 29 30 30 31 31 31 31 31 31 31 32 32 33 33 33 34 34 35 36 37 37 38 38 39 39 40 40 40 41 41 42 42 42 43 43 44 44 44
30 30 30 30 30 30 31 31 32 32 32 32 32 32 32 33 33 34 34 34 35 36 37 37 38 39 39 39 40 40 41 42 42 43 43 44 44 45 45 45 46 47 47
31 31 31 31 31 31 32 32 32 33 33 33 33 33 33 34 34 35 35 36 36 37 38 39 40 40 40 41 41 41 42 43 43 44 45 46 46 47 47 48 49 49 50
32 32 32 32 32 32 32 33 33 33 33 33 34 34 34 35 35 35 36 37 38 39 40 41 41 41 42 42 42 43 43 44 45 46 47 47 48 49 50 51 52 52 53
32 32 32 33 33 33 33 33 33 33 34 34 34 34 35 36 36 37 37 38 40 41 42 42 43 43 43 44 45 45 45 44 45 46 47 49 50 51 52 53 54 55 56
33 33 33 33 33 33 33 33 33 34 34 35 35 35 36 36 37 38 39 40 41 42 43 44 44 45 45 46 47 47 47 47 46 45 46 48 50 51 53 54 55 57 58
34 33 33 33 33 33 33 33 33 34 34 35 35 36 36 37 38 39 40 41 42 43 44 46 46 47 47 47 48 48 48 48 49 49 47 48 49 51 52 54 56 57 59
34 33 33 33 33 33 33 33 34 34 34 35 36 37 37 38 39 40 41 42 43 45 46 47 47 48 48 48 49 49 49 50 50 51 50 50 50 51 52 53 55 57 58
Wind_Direction
234 241 248 253 259 264 268 272 276 279 282 284 286 287 287 288 288 289 289 290 290 290 290 290 290 290 291 291 291 291 290 289 288 286 285 284 282 281 279 278 276 274 272
242 249 255 261 266 271 275 278 282 284 286 287 288 289 290 290 290 290 290 290 290 291 291 291 291 292 293 293 293 293 292 292 291 289 288 286 285 283 282 280 279 277 275
247 254 260 266 271 275 278 281 284 287 288 289 290 291 292 292 292 292 291 291 292 292 293 293 293 294 295 295 294 294 294 293 293 292 290 289 288 287 285 283 281 280 278
253 258 264 269 274 277 280 283 285 288 290 291 291 292 293 294 293 293 292 292 293 293 293 293 294 295 295 296 295 295 294 294 294 293 292 291 290 288 287 286 284 283 281
256 261 267 271 275 278 281 284 286 289 291 292 293 293 294 294 293 293 293 293 293 293 293 293 294 294 294 294 294 293 293 292 292 291 291 290 289 288 287 286 284 283 281
258 263 269 273 276 280 283 286 288 289 291 292 292 293 293 293 293 293 293 292 292 292 292 291 291 291 291 290 290 289 289 289 288 288 287 286 285 285 284 283 282 281 281
262 267 271 274 278 281 283 285 286 288 290 290 291 291 291 291 291 291 290 290 290 290 289 289 288 288 288 288 287 285 285 284 284 283 283 282 281 280 280 279 278 278 278
265 270 273 275 278 280 282 284 286 288 288 289 288 289 289 289 288 288 288 288 288 288 288 288 288 287 287 286 285 284 283 282 281 280 279 279 278 277 277 276 276 275 275
268 272 275 277 279 281 283 285 287 287 288 288 288 288 289 289 288 288 288 288 288 288 288 288 288 288 287 286 285 284 283 282 281 280 279 278 277 276 276 275 274 273 273
272 275 277 279 281 283 284 286 287 287 287 288 289 289 289 289 288 288 288 288 288 288 288 289 289 289 289 288 287 286 285 284 283 282 281 280 279 277 276 275 274 272 271
275 277 279 281 282 283 284 286 287 287 287 289 289 290 290 289 288 288 288 288 288 289 289 290 290 290 290 289 288 287 286 285 283 282 281 281 280 279 278 276 275 273 272
278 280 282 283 283 284 285 286 287 287 288 289 289 289 289 289 288 288 288 288 288 289 290 291 291 291 291 291 289 288 287 285 284 283 281 281 280 279 278 277 276 274 273
280 281 283 283 283 284 285 287 287 287 288 288 288 288 288 288 288 287 288 288 289 290 291 292 292 292 292 291 290 288 287 286 285 284 283 282 281 279 278 277 276 274 273
281 283 284 284 284 284 285 286 287 288 288 288 288 287 287 287 287 287 287 288 289 290 291 292 293 293 293 292 291 289 288 286 285 285 284 282 281 279 278 277 276 274 273
283 284 285 286 285 284 284 285 286 287 288 288 287 286 286 286 287 287 288 288 289 291 291 292 293 293 292 292 291 290 289 288 286 285 284 283 282 280 279 277 276 274 273
283 285 285 285 285 285 284 285 286 287 287 287 287 287 286 286 286 287 288 289 290 291 292 293 293 293 293 293 292 291 290 289 288 286 285 284 282 281 280 279 277 275 274
283 284 285 285 284 284 285 285 286 286 286 286 286 286 286 286 287 288 288 289 290 291 292 293 294 294 294 294 294 293 291 290 289 288 286 285 284 282 281 279 278 276 275
282 284 285 284 283 284 284 285 285 286 286 285 285 285 285 286 288 288 289 290 291 292 293 294 294 294 295 295 294 294 292 291 290 289 287 286 285 284 282 281 279 278 276
281 283 284 283 283 284 285 285 286 286 285 284 284 285 285 287 288 289 289 290 291 292 293 294 294 294 295 295 295 294 293 292 291 290 289 287 286 285 283 282 280 279 278
280 282 282 282 283 284 285 285 285 285 285 285 284 284 286 287 288 289 289 290 291 292 293 294 294 295 295 295 295 294 294 293 292 291 289 288 287 286 285 283 281 280 279
279 280 280 280 282 284 285 285 285 284 285 285 284 285 286 287 288 289 289 290 292 293 294 294 295 296 296 295 295 295 294 293 292 291 290 288 287 286 285 284 282 281 280
278 278 279 279 281 282 283 284 284 284 284 284 284 285 287 288 289 289 290 291 293 294 295 296 296 296 296 296 295 295 294 293 293 292 290 289 288 287 286 285 284 283 281
277 277 278 278 279 280 282 283 283 284 283 284 284 286 287 288 289 290 291 293 294 295 296 296 297 296 296 296 296 295 294 292 291 291 290 289 288 288 287 286 285 285 284
276 277 277 278 278 279 281 281 282 283 283 284 285 287 287 288 290 291 292 294 295 296 296 297 297 297 297 297 297 296 295 294 292 289 288 287 287 286 286 286 285 284 284
275 275 276 277 277 278 280 281 282 283 283 284 285 287 288 289 290 292 293 294 295 296 297 297 297 297 297 297 296 296 295 295 293 292 289 287 287 286 285 285 284 284 283
274 275 275 276 277 278 280 280 281 282 283 284 285 286 288 289 290 292 293 295 296 297 297 298 298 298 298 297 297 297 296 295 294 293 291 289 288 287 286 286 285 285 284
Height
5893 5893 5893 5893 5892 5892 5892 5891 5891 5891 5890 5890 5889 5888 5888 5887 5886 5885 5884 5883 5882 5881 5879 5878 5877 5876 5875 5874 5873 5872 5871 5870 5870 5869 5868 5867 5866 5866 5865 5865 5864 5863 5863
5892 5891 5891 5891 5891 5891 5890 5890 5890 5889 5889 5888 5887 5887 5886 5885 5884 5883 5881 5880 5879 5878 5877 5875 5874 5873 5872 5871 5870 5869 5868 5867 5866 5865 5865 5864 5863 5862 5862 5861 5860 5860 5859
5890 5890 5890 5890 5890 5889 5889 5888 5888 5887 5887 5886 5885 5884 5883 5882 5881 5880 5879 5877 5876 5875 5874 5873 5871 5870 5869 5868 5867 5866 5864 5864 5863 5862 5861 5860 5859 5859 5858 5857 5857 5856 5856
5888 5888 5888 5888 5888 5888 5887 5886 5886 5885 5884 5884 5883 5882 5881 5880 5879 5877 5876 5875 5873 5872 5871 5870 5868 5867 5866 5865 5864 5862 5861 5860 5859 5858 5857 5856 5856 5855 5854 5853 5853 5852 5852
5887 5887 5887 5886 5886 5886 5885 5884 5884 5883 5882 5881 5880 5879 5878 5877 5876 5874 5873 5872 5870 5869 5868 5866 5865 5864 5863 5861 5860 5859 5858 5857 5856 5855 5853 5852 5852 5851 5850 5849 5849 5848 5847
5885 5884 5884 5884 5884 5883 5883 5882 5881 5880 5880 5878 5877 5876 5875 5874 5872 5871 5870 5868 5867 5866 5864 5863 5861 5860 5859 5858 5856 5855 5854 5853 5852 5851 5849 5848 5847 5846 5846 5845 5844 5843 5843
5883 5882 5882 5882 5881 5881 5880 5879 5878 5878 5876 5875 5874 5873 5872 5870 5869 5868 5866 5865 5863 5862 5860 5859 5857 5856 5855 5853 5852 5851 5850 5848 5847 5846 5845 5843 5842 5841 5841 5840 5839 5838 5838
5881 5880 5880 5879 5878 5878 5877 5876 5875 5874 5873 5872 5871 5870 5868 5867 5865 5864 5862 5861 5859 5858 5856 5855 5853 5852 5850 5849 5847 5846 5845 5843 5842 5841 5839 5838 5837 5836 5835 5834 5834 5833 5832
5878 5877 5877 5876 5875 5875 5874 5873 5872 5871 5870 5868 5867 5866 5865 5863 5862 5860 5858 5857 5855 5853 5852 5850 5849 5847 5845 5844 5842 5841 5839 5838 5836 5835 5834 5832 5831 5830 5829 5828 5828 5827 5826
5875 5875 5874 5873 5872 5871 5870 5869 5868 5867 5866 5865 5863 5862 5861 5859 5857 5856 5854 5852 5851 5849 5847 5846 5844 5842 5840 5839 5837 5835 5834 5832 5831 5829 5828 5826 5825 5824 5823 5822 5821 5820 5820
5873 5872 5871 5870 5869 5868 5867 5866 5865 5863 5862 5861 5859 5858 5856 5854 5853 5851 5849 5848 5846 5844 5843 5841 5839 5837 5835 5833 5831 5829 5828 5826 5824 5823 5821 5820 5819 5817 5816 5815 5814 5813 5812
5869 5868 5867 5866 5865 5864 5863 5862 5861 5859 5858 5857 5855 5853 5852 5850 5848 5847 5845 5843 5841 5839 5838 5836 5834 5832 5829 5827 5825 5823 5821 5819 5818 5816 5815 5813 5812 5810 5809 5808 5807 5805 5804
5865 5865 5864 5862 5861 5860 5859 5858 5856 5855 5853 5852 5850 5849 5847 5845 5843 5842 5840 5838 5836 5834 5832 5830 5828 5826 5823 5821 5819 5817 5815 5813 5811 5809 5808 5806 5804 5803 5801 5800 5799 5797 5796
5861 5860 5859 5858 5857 5856 5854 5853 5852 5850 5849 5847 5845 5844 5842 5840 5838 5837 5835 5833 5831 5829 5826 5824 5822 5820 5817 5815 5812 5810 5808 5806 5804 5802 5800 5799 5797 5795 5793 5791 5790 5788 5787
5857 5856 5855 5853 5852 5851 5849 5848 5846 5845 5843 5842 5840 5838 5837 5835 5833 5831 5829 5827 5825 5823 5820 5818 5815 5813 5810 5808 5805 5803 5800 5798 5796 5794 5792 5790 5788 5786 5784 5782 5781 5779 5778
5852 5851 5850 5848 5847 5846 5844 5843 5841 5840 5838 5836 5835 5833 5831 5829 5827 5825 5823 5821 5819 5817 5814 5812 5809 5806 5803 5801 5798 5795 5793 5790 5788 5786 5783 5781 5779 5777 5775 5773 5771 5769 5768
5847 5846 5844 5843 5842 5840 5839 5837 5836 5834 5832 5831 5829 5827 5825 5823 5821 5819 5817 5815 5812 5810 5807 5804 5802 5799 5796 5793 5790 5787 5784 5782 5779 5777 5774 5772 5770 5768 5766 5763 5762 5760 5758
5841 5840 5839 5837 5836 5834 5833 5831 5830 5828 5826 5824 5823 5821 5819 5817 5815 5812 5810 5808 5805 5803 5800 5797 5794 5791 5788 5785 5782 5779 5776 5773 5770 5767 5765 5762 5760 5758 5755 5753 5751 5749 5748
5835 5834 5832 5831 5830 5828 5827 5825 5823 5822 5820 5818 5816 5814 5812 5810 5808 5806 5803 5800 5798 5795 5792 5790 5786 5783 5780 5777 5773 5770 5767 5764 5760 5757 5755 5752 5749 5747 5745 5743 5741 5739 5737
5828 5827 5826 5824 5823 5821 5820 5818 5816 5815 5813 5811 5809 5807 5805 5803 5801 5798 5796 5793 5790 5788 5785 5782 5778 5775 5772 5768 5765 5761 5758 5754 5751 5747 5744 5742 5739 5736 5733 5731 5729 5727 5725
5822 5820 5819 5817 5816 5814 5813 5811 5809 5808 5806 5804 5802 5800 5798 5796 5793 5791 5788 5786 5783 5780 5776 5773 5770 5767 5763 5759 5756 5752 5748 5744 5741 5737 5734 5731 5728 5725 5722 5719 5717 5715 5713
5814 5813 5811 5810 5808 5807 5805 5804 5802 5800 5799 5797 5795 5793 5791 5788 5786 5783 5780 5778 5774 5771 5768 5764 5761 5757 5754 5750 5746 5743 5739 5736 5731 5727 5723 5719 5716 5713 5710 5707 5704 5701 5699
5807 5805 5804 5802 5801 5800 5798 5796 5795 5793 5791 5789 5787 5785 5783 5781 5778 5775 5772 5769 5766 5763 5759 5755 5752 5748 5744 5740 5736 5733 5729 5726 5722 5718 5712 5708 5704 5700 5697 5694 5690 5687 5685
5799 5798 5796 5795 5793 5792 5790 5789 5787 5785 5784 5782 5780 5778 5775 5772 5770 5767 5764 5760 5757 5753 5750 5746 5742 5738 5734 5730 5725 5721 5717 5713 5710 5708 5704 5698 5693 5689 5685 5681 5677 5674 5670
5791 5789 5788 5787 5785 5784 5783 5781 5779 5778 5776 5774 5772 5769 5767 5764 5761 5758 5755 5751 5747 5744 5740 5736 5732 5727 5723 5718 5714 5710 5706 5701 5697 5694 5692 5688 5683 5678 5673 5669 5664 5660 5656
5782 5781 5780 5779 5777 5776 5775 5773 5771 5770 5768 5766 5763 5761 5758 5755 5752 5749 5745 5742 5738 5734 5730 5725 5721 5716 5712 5707 5702 5698 5694 5689 5685 5681 5678 5674 5670 5666 5661 5656 5651 5646 5642